Wind_Speed
14 16 18 19 20 21 22 22 23 22 21 20 19 19 18 17 17 18 19 19 19 19 19 19 20 19 18 16 15 14 13 12 10 8 6 6 4 4 4 4 3 4 4 4
15 16 18 19 20 21 22 22 22 21 20 20 19 19 18 18 18 18 19 20 20 20 20 20 20 20 20 18 16 14 13 12 10 9 8 7 6 4 3 3 3 2 2 2
15 16 17 18 20 20 20 21 21 21 21 20 20 20 19 19 19 19 20 20 21 21 21 21 21 21 20 19 18 16 15 14 12 11 10 9 8 7 6 4 3 3 2 2
14 15 16 18 19 19 19 20 20 20 20 20 20 20 19 19 19 19 20 20 21 21 22 22 22 22 22 21 20 18 17 16 15 14 12 11 10 8 6 6 5 4 4 4
13 14 15 17 18 18 18 18 19 19 20 20 19 19 19 19 19 19 20 21 21 22 22 23 23 23 23 22 22 21 19 18 17 16 14 13 12 11 9 8 6 5 4 4
12 13 14 16 16 17 17 17 18 19 19 19 19 19 19 19 19 19 20 21 21 22 22 23 24 24 24 24 23 22 21 20 18 18 16 15 14 12 11 10 8 6 5 4
11 12 13 14 15 16 16 16 16 17 18 18 18 18 18 18 19 19 20 21 21 22 22 23 24 24 24 24 24 23 22 21 21 20 19 17 16 14 13 11 10 8 6 5
10 10 11 12 13 14 15 15 15 15 16 16 17 17 17 17 18 18 19 20 21 21 22 23 23 24 24 24 24 23 22 22 22 21 20 19 18 16 15 13 12 10 9 7
9 9 10 11 12 12 13 13 14 14 14 14 15 15 15 16 16 17 18 19 20 20 21 22 22 23 23 24 24 24 23 23 22 22 21 20 19 18 17 16 14 12 11 9
8 9 9 10 11 11 11 12 12 12 12 13 13 13 14 15 15 16 16 17 18 19 20 21 22 22 22 23 23 23 23 23 23 22 22 21 21 20 19 18 16 15 13 12
8 9 9 10 10 10 11 11 11 11 11 11 11 12 12 13 14 14 15 16 17 18 19 20 20 21 21 22 22 23 22 22 22 22 22 21 21 20 20 19 17 16 15 14
8 9 9 9 10 10 10 10 10 10 9 10 10 10 11 12 12 13 14 15 16 17 17 18 19 20 20 21 21 22 22 22 22 22 22 22 21 21 20 19 18 17 16 15
10 9 9 9 10 10 10 9 9 10 9 9 9 9 10 10 11 12 13 14 15 15 16 17 18 19 19 20 20 21 21 22 22 22 21 21 21 21 21 20 20 19 18 17
11 11 11 10 10 10 10 10 10 9 9 9 9 9 9 9 10 11 11 12 13 14 15 16 17 17 18 19 19 20 21 21 21 21 21 21 21 20 20 20 20 19 19 18
14 13 12 12 12 12 11 11 11 10 10 9 9 9 9 9 9 10 11 11 12 13 14 14 15 16 17 17 18 18 19 20 20 20 21 20 20 20 19 19 18 18 18 18
17 16 15 14 14 13 13 12 12 12 11 10 10 10 10 10 9 10 10 11 12 12 13 13 14 14 15 16 16 17 17 18 19 19 19 19 19 19 19 18 17 17 17 17
20 19 18 17 16 16 15 14 14 13 13 12 12 11 11 11 10 10 11 11 11 12 12 13 13 13 13 14 14 15 15 16 17 17 18 18 18 18 18 17 17 16 16 15
24 23 22 21 20 19 18 17 16 15 15 14 14 13 13 12 12 12 12 12 12 12 12 12 13 13 13 13 13 14 14 14 15 15 16 16 16 16 16 16 15 15 14 14
28 26 25 24 23 22 21 20 19 19 18 17 16 16 15 15 14 14 13 13 13 13 13 13 13 13 13 13 13 13 13 13 13 13 14 14 14 14 13 13 13 13 13 12
32 30 29 28 27 26 25 24 23 22 21 20 19 19 18 17 17 16 16 15 15 15 14 14 14 14 14 13 13 13 13 13 12 12 13 13 12 12 12 11 11 11 11 11
36 35 33 32 31 30 29 28 27 25 25 24 23 22 21 20 20 19 19 18 18 17 17 16 16 15 15 15 14 14 14 13 13 12 12 12 11 10 10 10 9 9 9 9
40 39 38 37 36 35 34 32 31 30 28 27 27 26 25 24 23 23 22 21 21 20 20 19 18 18 17 16 16 16 15 15 14 13 12 11 10 10 9 9 8 8 7 7
44 44 43 41 40 39 38 37 36 34 33 32 31 30 29 28 27 27 26 25 24 24 23 22 21 20 20 19 18 18 17 16 16 15 14 12 11 10 10 9 9 8 7 7
49 48 47 46 45 44 43 42 41 39 38 37 36 35 34 33 32 31 30 29 28 27 26 25 24 23 23 22 21 21 20 19 18 17 16 15 14 13 12 12 11 10 9 9
53 52 52 51 50 49 48 47 46 44 43 42 41 40 39 38 37 36 35 34 33 32 31 30 28 27 26 25 24 23 23 22 21 20 19 18 17 16 16 15 14 14 13 12
56 56 56 55 54 54 53 52 51 49 48 47 46 45 44 42 41 41 40 39 38 36 35 34 32 31 30 29 28 27 26 25 24 23 22 22 21 20 19 19 18 18 17 16
60 59 59 58 58 57 57 56 55 54 53 52 50 49 48 47 46 45 44 43 42 40 39 38 36 35 34 33 32 31 30 29 28 27 27 26 25 24 24 23 22 21 21 21
Wind_Direction
7 7 7 7 6 5 5 6 6 8 11 13 15 17 18 20 21 23 22 20 17 16 16 16 15 15 15 14 14 14 17 19 17 13 10 2 354 332 314 306 286 264 253 239
10 10 10 11 10 10 11 12 13 14 17 20 22 23 24 26 27 26 24 24 23 23 22 21 19 19 19 19 18 18 17 16 14 10 6 4 4 360 346 323 311 286 257 226
12 12 12 14 13 14 16 18 19 21 23 26 27 28 28 30 30 28 27 28 28 28 28 27 25 24 23 24 25 24 22 20 20 18 15 11 6 8 16 7 345 328 309 271
13 14 15 16 17 18 20 22 24 26 28 30 30 31 32 34 33 31 30 30 31 31 31 30 29 28 28 28 29 29 29 29 28 26 24 22 21 17 12 4 350 334 310 293
13 15 17 18 20 21 23 26 27 30 31 33 34 36 37 38 36 34 34 34 35 35 35 34 33 32 31 31 32 34 34 32 31 28 26 25 23 20 14 4 352 338 319 296
12 14 16 19 21 23 25 28 28 30 33 35 36 39 39 39 39 37 36 36 36 35 35 34 34 34 34 33 33 34 34 33 33 31 28 26 24 20 16 9 0 350 336 314
9 11 14 17 20 22 25 27 28 30 32 35 37 40 40 41 41 39 37 36 35 35 34 34 33 33 33 33 34 35 35 35 34 33 31 29 27 22 18 15 12 7 359 343
3 5 9 13 17 20 23 25 27 29 30 33 36 38 39 40 39 39 37 36 36 35 35 34 33 33 33 33 34 34 35 35 34 33 31 30 29 27 26 24 22 20 17 13
355 359 3 8 12 15 18 21 23 26 28 31 34 36 37 37 37 37 37 37 36 35 34 33 33 33 34 34 34 34 35 35 34 33 32 32 32 32 32 31 29 27 26 25
343 350 355 0 4 8 11 14 17 20 23 26 29 32 33 33 33 34 35 34 34 33 32 32 32 33 33 33 33 33 33 34 34 33 32 32 33 33 33 33 33 34 34 34
327 336 343 349 354 359 3 5 8 12 17 20 23 26 28 28 29 29 29 30 30 30 30 30 30 30 31 31 31 31 32 33 33 33 33 33 33 33 34 35 37 38 39 40
311 321 330 337 342 345 350 355 359 1 5 11 15 18 21 23 24 24 24 25 26 26 27 27 28 28 29 30 30 30 31 32 32 33 33 34 34 36 38 40 41 41 42 44
297 306 315 323 329 333 335 339 345 351 355 358 2 6 10 14 17 18 19 20 21 22 23 23 25 26 27 28 29 29 29 30 31 33 34 35 36 37 39 41 42 44 45 47
287 294 300 309 316 319 322 325 328 333 341 347 349 351 355 360 5 9 10 12 13 15 16 18 19 21 23 24 26 27 28 29 30 32 33 35 36 38 40 42 43 45 47 49
277 283 289 296 301 306 310 312 315 319 323 330 336 338 340 343 348 354 358 1 2 4 6 9 12 15 17 19 21 23 25 26 28 30 31 33 35 37 39 41 43 46 48 51
270 275 279 284 289 294 298 302 305 307 311 314 320 326 328 330 332 335 339 345 350 354 356 358 1 5 8 11 14 17 20 22 24 26 28 31 33 35 37 39 42 46 49 52
267 269 272 275 279 283 288 292 295 298 301 304 307 312 316 320 322 324 326 330 334 340 345 349 351 353 356 360 3 7 11 15 18 21 24 27 29 32 34 37 39 42 46 49
264 266 268 270 272 275 279 283 286 290 293 296 299 301 304 308 312 316 319 320 322 325 329 334 339 343 346 349 353 357 360 4 8 12 15 19 23 26 30 33 36 39 42 46
261 263 264 266 268 270 273 276 279 282 285 288 291 294 296 298 301 305 309 313 316 317 318 320 323 328 333 336 339 344 348 351 355 360 4 8 13 17 22 27 31 34 38 41
260 261 262 263 265 267 269 271 273 276 279 282 284 287 290 292 294 296 299 302 306 309 311 312 314 316 319 323 326 329 333 338 342 345 349 355 1 6 11 16 22 26 30 34
258 259 260 261 263 264 266 268 270 272 274 277 279 282 285 287 289 291 294 296 298 300 302 304 305 307 308 310 314 316 319 323 327 331 333 338 344 350 356 2 8 14 19 24
257 258 259 260 261 262 264 266 268 269 271 273 275 278 280 283 285 287 289 291 293 295 296 298 298 299 300 301 303 305 308 310 312 315 318 320 324 330 336 341 347 353 360 4
255 256 257 258 260 261 263 264 266 267 269 271 273 275 277 279 281 283 285 287 289 290 291 292 293 293 293 293 295 296 298 301 302 303 303 304 305 307 312 318 322 326 330 334
253 254 256 257 259 260 262 263 264 266 267 269 270 272 274 276 277 279 281 283 285 286 287 288 288 288 289 288 288 289 290 291 293 294 294 293 292 292 294 296 300 303 305 307
251 253 254 256 258 259 261 262 264 265 266 268 269 270 272 273 275 276 278 280 281 282 283 284 285 284 284 284 284 284 283 284 285 285 284 284 285 284 284 284 286 288 289 290
250 252 253 255 256 258 260 261 263 264 266 267 268 269 271 272 273 274 276 277 278 278 279 280 280 280 280 279 279 279 279 279 279 279 279 279 278 278 278 278 278 278 279 281
250 251 252 253 255 257 258 260 261 263 264 266 267 268 269 270 271 272 273 274 274 275 275 276 276 276 276 276 276 276 275 275 275 275 275 275 275 274 274 274 274 274 274 274
Height
5885 5882 5878 5874 5870 5865 5860 5855 5850 5845 5840 5835 5831 5826 5822 5818 5815 5811 5808 5804 5800 5796 5793 5789 5785 5781 5778 5774 5772 5769 5767 5765 5763 5762 5761 5760 5760 5759 5759 5759 5760 5760 5760 5761
5885 5882 5878 5875 5871 5866 5861 5856 5851 5846 5842 5837 5833 5828 5824 5821 5817 5814 5810 5806 5802 5798 5795 5791 5787 5783 5780 5776 5773 5771 5768 5766 5765 5763 5762 5761 5760 5759 5759 5759 5759 5759 5759 5760
5886 5882 5879 5876 5872 5867 5863 5858 5853 5849 5845 5839 5835 5831 5827 5823 5820 5816 5813 5809 5805 5801 5797 5794 5790 5786 5782 5779 5775 5773 5770 5768 5766 5764 5763 5761 5761 5760 5759 5759 5759 5759 5759 5759
5886 5884 5880 5879 5873 5869 5865 5860 5856 5851 5847 5842 5838 5834 5830 5826 5823 5819 5816 5812 5808 5804 5801 5797 5793 5789 5785 5782 5778 5775 5772 5770 5767 5766 5764 5763 5761 5760 5760 5759 5759 5758 5758 5759
5886 5884 5881 5878 5874 5870 5867 5863 5859 5854 5850 5845 5841 5837 5833 5830 5826 5823 5819 5816 5812 5808 5805 5801 5797 5793 5789 5785 5782 5778 5775 5772 5770 5768 5766 5764 5763 5761 5760 5759 5758 5758 5758 5758
5887 5884 5882 5880 5876 5872 5869 5865 5861 5857 5853 5849 5845 5841 5838 5834 5830 5826 5823 5819 5816 5812 5809 5805 5801 5797 5793 5789 5786 5782 5779 5776 5773 5771 5768 5766 5764 5762 5760 5759 5758 5757 5756 5756
5887 5885 5882 5880 5876 5874 5871 5869 5863 5859 5856 5852 5848 5845 5842 5837 5834 5830 5827 5824 5820 5816 5813 5809 5805 5801 5798 5794 5790 5786 5783 5780 5776 5774 5771 5768 5766 5763 5761 5759 5757 5756 5755 5755
5887 5885 5885 5880 5877 5875 5873 5868 5865 5861 5858 5855 5851 5848 5844 5841 5838 5834 5831 5827 5824 5820 5817 5813 5810 5806 5802 5798 5794 5790 5787 5783 5780 5777 5774 5770 5768 5765 5762 5760 5758 5756 5755 5754
5887 5887 5883 5880 5878 5875 5872 5869 5866 5863 5860 5857 5854 5851 5847 5844 5841 5838 5835 5831 5828 5824 5821 5817 5814 5810 5806 5802 5798 5795 5791 5787 5784 5780 5777 5773 5770 5767 5764 5761 5759 5757 5755 5753
5886 5884 5882 5880 5878 5875 5873 5870 5867 5865 5862 5859 5856 5853 5850 5847 5844 5841 5838 5834 5831 5828 5825 5821 5817 5814 5810 5807 5803 5799 5795 5791 5788 5784 5780 5777 5773 5770 5766 5763 5761 5758 5756 5754
5884 5883 5881 5880 5877 5875 5873 5871 5868 5866 5863 5860 5858 5855 5852 5849 5846 5844 5841 5837 5834 5831 5828 5825 5821 5817 5814 5810 5807 5803 5799 5795 5792 5788 5784 5780 5777 5773 5770 5766 5763 5761 5758 5756
5883 5882 5881 5879 5877 5875 5873 5871 5868 5866 5864 5861 5859 5856 5854 5851 5848 5846 5843 5840 5837 5834 5831 5827 5824 5821 5817 5814 5810 5807 5803 5799 5795 5792 5788 5784 5781 5777 5773 5770 5767 5764 5762 5759
5880 5879 5878 5877 5875 5874 5872 5870 5868 5866 5864 5862 5859 5857 5855 5852 5850 5847 5845 5842 5839 5836 5833 5830 5827 5824 5820 5817 5813 5810 5807 5803 5799 5795 5792 5788 5785 5781 5777 5774 5771 5768 5765 5763
5877 5876 5875 5874 5873 5872 5870 5869 5867 5865 5863 5861 5859 5857 5855 5853 5850 5848 5846 5843 5841 5838 5835 5832 5829 5826 5823 5820 5817 5813 5810 5806 5803 5799 5796 5792 5789 5785 5782 5779 5776 5773 5770 5768
5873 5873 5872 5871 5871 5870 5868 5867 5865 5864 5862 5860 5858 5856 5854 5852 5850 5848 5846 5844 5842 5839 5837 5834 5831 5829 5826 5823 5820 5816 5813 5810 5806 5803 5799 5796 5793 5789 5786 5783 5780 5778 5775 5773
5868 5868 5868 5867 5867 5866 5865 5864 5863 5862 5860 5858 5857 5855 5853 5851 5849 5848 5846 5844 5842 5840 5837 5835 5832 5830 5827 5824 5822 5819 5816 5813 5809 5806 5803 5800 5797 5793 5790 5787 5785 5782 5780 5778
5862 5862 5862 5862 5862 5862 5861 5861 5860 5858 5857 5856 5854 5853 5851 5849 5848 5846 5844 5843 5841 5839 5837 5835 5833 5830 5828 5825 5823 5820 5818 5815 5812 5809 5806 5803 5800 5797 5794 5791 5789 5786 5784 5782
5855 5856 5856 5857 5857 5857 5856 5856 5855 5854 5853 5852 5851 5850 5848 5847 5846 5844 5843 5841 5839 5838 5836 5834 5832 5830 5828 5825 5823 5821 5819 5816 5814 5811 5808 5806 5803 5800 5797 5795 5792 5790 5788 5786
5847 5848 5849 5849 5850 5850 5850 5850 5850 5849 5849 5848 5847 5846 5845 5844 5842 5841 5840 5838 5837 5835 5834 5832 5830 5829 5827 5825 5823 5821 5819 5816 5814 5812 5810 5807 5805 5802 5800 5798 5795 5793 5791 5789
5838 5840 5841 5841 5842 5843 5843 5843 5843 5843 5843 5842 5842 5841 5840 5839 5838 5837 5836 5835 5834 5832 5831 5829 5828 5826 5825 5823 5821 5819 5818 5816 5814 5812 5810 5808 5806 5804 5802 5800 5798 5796 5794 5792
5828 5830 5831 5832 5833 5834 5834 5835 5836 5836 5836 5836 5836 5835 5835 5834 5833 5832 5831 5830 5830 5828 5827 5826 5825 5823 5822 5821 5819 5817 5816 5814 5813 5811 5809 5807 5805 5804 5802 5801 5799 5797 5795 5794
5816 5818 5820 5822 5823 5824 5825 5826 5827 5827 5828 5828 5828 5828 5828 5827 5827 5826 5826 5825 5824 5823 5822 5821 5820 5819 5818 5817 5816 5814 5813 5812 5810 5809 5807 5806 5804 5803 5802 5801 5799 5798 5796 5795
5803 5806 5807 5809 5811 5813 5814 5815 5816 5818 5818 5819 5820 5820 5820 5820 5820 5819 5819 5819 5818 5817 5817 5816 5815 5814 5813 5812 5812 5811 5809 5808 5807 5806 5804 5803 5802 5801 5800 5799 5798 5797 5796 5795
5790 5792 5794 5796 5798 5800 5802 5803 5805 5806 5808 5809 5809 5810 5810 5811 5811 5811 5811 5811 5810 5810 5810 5809 5809 5808 5807 5807 5806 5805 5805 5804 5803 5802 5801 5800 5799 5798 5798 5797 5796 5795 5794 5793
5774 5777 5779 5782 5784 5786 5788 5790 5792 5794 5795 5797 5798 5799 5799 5800 5801 5801 5801 5801 5801 5801 5801 5801 5801 5800 5800 5800 5799 5799 5798 5798 5797 5797 5796 5795 5795 5794 5794 5793 5793 5792 5791 5791
5758 5761 5763 5766 5769 5771 5774 5776 5778 5780 5782 5783 5784 5786 5787 5788 5789 5789 5790 5790 5791 5791 5791 5791 5791 5791 5791 5791 5791 5791 5791 5790 5790 5790 5790 5789 5789 5789 5788 5788 5787 5787 5787 5786
5739 5743 5746 5749 5752 5755 5757 5760 5762 5764 5766 5768 5770 5771 5772 5774 5775 5776 5777 5777 5778 5779 5779 5780 5780 5781 5781 5781 5781 5782 5782 5782 5782 5782 5782 5781 5781 5781 5781 5781 5781 5781 5780 5780